DateTimeUTC,F1_A11,F1_S11,BsB_S11,BsG_S11,BsR_S11,BbsB_S11,BbsG_S11,BbsR_S11,BaB_A11,BaG_A11,BaR_A11,Tu_S11,T_S11,Uu_S11,U_S11,P_S11,T1_A11
2021-02-06T01:00:00Z,00000200,21000000,,,,,,,0000.18,0000.31,-000.12,16.2,23.5,,00.0,0647.3,30.9
2021-02-06T01:01:00Z,00000200,21000000,,,,,,,0000.01,-000.01,0000.29,16.2,23.5,,00.0,0647.3,30.9
2021-02-06T01:02:00Z,00000200,21000000,,,,,,,0000.38,0000.38,-000.10,16.1,23.5,,00.0,0647.3,30.9
2021-02-06T01:03:00Z,00000200,61000000,,,,,,,-000.09,0000.09,0000.41,16.1,23.5,,00.0,0647.3,30.9
2021-02-06T01:04:00Z,00000200,41000000,0000.50,0000.05,0000.26,-000.01,-000.06,0000.16,0000.24,-000.44,-000.12,16.5,23.4,,00.0,0648.1,30.9
2021-02-06T01:05:00Z,00000200,01000000,0000.84,-000.25,0000.14,0000.18,-000.11,0000.34,0000.46,0000.78,0000.27,16.5,23.3,,00.0,0648.2,30.9
2021-02-06T01:06:00Z,00000200,01000000,-000.06,-000.02,0000.07,0000.40,0000.09,0000.09,-000.20,0000.12,-000.06,16.5,23.3,,00.0,0648.2,30.9
2021-02-06T01:07:00Z,00000200,01000000,-000.02,-000.25,-000.23,0000.06,-000.22,-000.02,0000.17,0000.38,0000.02,16.4,23.3,,00.0,0648.2,30.9
2021-02-06T01:08:00Z,00000200,01000000,0000.38,0000.11,0000.35,0000.13,0000.08,-000.03,0000.31,0000.07,0000.53,16.4,23.2,,00.0,0648.2,30.9
2021-02-06T01:09:00Z,00000200,01000000,0000.48,0000.38,0000.27,-000.27,0000.04,0000.33,0000.03,0000.18,0000.02,16.3,23.2,,00.0,0648.1,30.9
2021-02-06T01:10:00Z,00000200,01000000,0000.12,-000.01,0000.22,-000.33,0000.15,0000.10,0000.24,0000.37,0000.16,16.3,23.2,,00.0,0648.2,30.9
2021-02-06T01:11:00Z,00000200,01000000,0000.64,0000.29,0000.25,-000.38,-000.01,-000.12,0000.28,-000.28,-000.15,16.2,23.1,,00.0,0648.1,30.9
2021-02-06T01:12:00Z,00000200,01000000,0000.85,0000.09,0000.08,0000.29,-000.15,-000.01,0000.14,0000.55,0000.43,16.2,23.1,,00.0,0648.1,30.9
2021-02-06T01:13:00Z,00000200,01000000,-000.02,0000.05,0000.09,-000.10,0000.14,0000.06,0000.07,-000.12,-000.33,16.1,23.1,,00.0,0648.2,30.9
2021-02-06T01:14:00Z,00000200,01000000,0000.26,-000.14,-000.12,0000.27,0000.00,0000.11,0000.25,0000.04,0000.17,16.0,23.1,,00.0,0648.1,30.9
2021-02-06T01:15:00Z,00000200,01000000,-000.20,0000.31,0000.32,0000.26,0000.25,0000.12,0000.25,-000.29,0000.29,16.0,23.0,,00.0,0648.1,30.8
2021-02-06T01:16:00Z,00000200,01000000,0000.48,-000.10,0000.14,0000.36,0000.05,0000.18,0000.19,0000.06,-000.14,16.0,23.0,,00.0,0648.1,30.9
2021-02-06T01:17:00Z,00000200,01000000,0000.08,0000.15,-000.02,0000.57,0000.09,0000.05,0000.24,0000.72,0000.15,16.1,23.0,,00.0,0648.1,30.9
2021-02-06T01:18:00Z,00000200,01000000,0000.10,0000.02,0000.11,0000.09,0000.02,0000.50,-000.13,-000.52,0000.16,16.2,23.1,,00.0,0648.2,30.9
2021-02-06T01:19:00Z,00000200,01000000,0000.05,-000.21,0000.18,0000.31,-000.00,0000.03,-000.19,-000.20,-000.14,16.2,23.1,,00.0,0648.1,30.9
2021-02-06T01:20:00Z,00000200,01000000,0000.29,-000.02,-000.11,0000.67,0000.05,0000.02,0000.10,0000.87,0000.07,16.2,23.1,,00.0,0648.2,30.9
2021-02-06T01:21:00Z,00000200,01000000,0000.14,0000.14,0000.06,0000.41,-000.10,0000.16,0000.08,-000.04,0000.17,16.2,23.1,,00.0,0648.1,30.9
2021-02-06T01:22:00Z,00000200,01000000,0000.20,0000.47,0000.16,-000.03,-000.05,0000.43,-000.18,-000.22,-000.13,16.2,23.1,,00.0,0648.2,30.9
2021-02-06T01:23:00Z,00000200,01000000,0000.08,0000.04,0000.25,0000.33,0000.03,0000.19,-000.25,0000.04,-000.04,16.1,23.0,,00.0,0648.2,30.9
2021-02-06T01:24:00Z,00000200,01000000,-000.38,-000.17,0000.24,0000.26,0000.28,-000.15,0000.00,-000.49,-000.35,16.1,23.0,,00.0,0648.2,30.9
2021-02-06T01:25:00Z,00000200,01000000,0000.19,0000.08,0000.09,0000.10,-000.05,0000.12,-000.06,-000.40,0000.03,16.0,23.0,,00.0,0648.3,30.9
2021-02-06T01:26:00Z,00000200,01000000,0000.50,0000.01,0000.18,-000.06,0000.13,-000.01,-000.01,0000.05,-000.26,16.0,22.9,,00.0,0648.3,30.9
2021-02-06T01:27:00Z,00000200,01000000,0000.08,-000.10,0000.24,-000.42,-000.09,0000.01,-000.36,-000.19,0000.32,15.9,22.9,,00.0,0648.3,30.9
2021-02-06T01:28:00Z,00000200,01000000,0000.68,-000.02,0000.09,0000.21,0000.06,0000.11,-000.34,0000.03,-000.24,15.8,22.9,,00.0,0648.4,30.8
2021-02-06T01:29:00Z,00000200,01000000,0000.23,0000.09,-000.19,0000.29,0000.12,0000.09,0000.06,-000.52,-000.37,15.8,22.9,,00.0,0648.4,30.8
2021-02-06T01:30:00Z,00000200,01000000,0000.98,0000.01,-000.07,0000.08,-000.03,0000.03,0000.06,-000.06,-000.06,15.8,22.8,,00.0,0648.4,30.8
2021-02-06T01:31:00Z,00000200,01000000,-000.21,-000.01,0000.33,0000.31,-000.19,0000.30,0000.51,0000.52,0000.37,15.8,22.8,,00.0,0648.4,30.8
2021-02-06T01:32:00Z,00000200,01000000,0000.20,0000.03,0000.03,0000.09,0000.23,-000.19,-000.29,0000.10,0000.31,15.9,22.8,,00.0,0648.4,30.9
2021-02-06T01:33:00Z,00000200,01000000,0000.27,-000.03,0000.25,-000.34,-000.22,0000.17,0000.10,-000.01,0000.13,16.0,22.9,,00.0,0648.4,30.9
2021-02-06T01:34:00Z,00000200,01000000,0000.27,-000.03,0000.21,0000.50,-000.08,0000.16,-000.07,0000.27,-000.00,16.0,22.9,,00.0,0648.4,30.9
2021-02-06T01:35:00Z,00000200,01000000,0000.25,-000.27,0000.02,0000.33,0000.15,0000.02,0000.23,0000.41,0000.13,16.1,22.9,,00.0,0648.4,30.9
2021-02-06T01:36:00Z,00000200,01000000,0000.42,-000.04,0000.14,0000.56,0000.22,0000.10,0000.27,-000.32,-000.03,16.2,23.0,,00.0,0648.4,30.9
2021-02-06T01:37:00Z,00000200,01000000,0000.09,0000.07,0000.15,0000.35,-000.14,0000.28,-000.55,0000.11,-000.20,16.3,23.0,,00.0,0648.4,30.9
2021-02-06T01:38:00Z,00000200,01000000,0000.23,-000.21,0000.03,0000.31,0000.14,-000.08,0000.43,0000.03,0000.10,16.3,23.1,,00.0,0648.4,30.9
2021-02-06T01:39:00Z,00000200,01000000,-000.23,0000.20,0000.09,0000.59,0000.13,0000.42,0000.02,0000.23,-000.01,16.3,23.1,,00.0,0648.4,30.9
2021-02-06T01:40:00Z,00000200,01000000,0000.08,0000.04,0000.16,0000.11,0000.02,-000.20,-000.26,-000.07,-000.08,16.3,23.1,,00.0,0648.5,30.9
2021-02-06T01:41:00Z,00000200,01000000,0000.11,-000.04,-000.19,0000.17,0000.21,-000.03,0000.33,-000.42,0000.02,16.2,23.0,,00.0,0648.5,30.9
2021-02-06T01:42:00Z,00000200,01000000,-000.11,-000.11,-000.01,0000.27,0000.05,0000.31,-000.03,-000.11,0000.21,16.2,23.0,,00.0,0648.6,30.9
2021-02-06T01:43:00Z,00000200,01000000,-000.09,-000.01,0000.33,0000.34,0000.22,0000.03,-000.21,0000.18,0000.08,16.1,23.0,,00.0,0648.6,30.9
2021-02-06T01:44:00Z,00000200,01000000,-000.17,0000.19,0000.29,0000.31,-000.10,0000.06,-000.10,-000.04,-000.55,16.1,23.0,,00.0,0648.6,30.9
2021-02-06T01:45:00Z,00000200,01000000,0000.27,0000.16,0000.12,0000.22,0000.03,0000.15,0000.05,0000.10,0000.05,16.1,22.9,,00.0,0648.6,30.9
2021-02-06T01:46:00Z,00000200,01000000,-000.09,-000.13,0000.08,0000.27,0000.20,0000.42,0000.23,0000.29,0000.63,16.1,22.9,,00.0,0648.6,30.9
2021-02-06T01:47:00Z,00000200,01000000,0000.54,-000.24,0000.25,0000.67,0000.20,-000.19,0000.12,0000.14,0000.12,16.1,22.9,,00.0,0648.6,30.9
2021-02-06T01:48:00Z,00000200,01000000,0000.14,-000.30,0000.13,0000.23,0000.07,0000.20,0000.47,-000.03,0000.06,16.2,23.0,,00.0,0648.6,30.9
2021-02-06T01:49:00Z,00000200,01000000,-000.16,0000.16,0000.08,0000.11,-000.09,-000.04,-000.13,-000.15,-000.11,16.3,23.0,,00.0,0648.6,30.9
2021-02-06T01:50:00Z,00000200,01000000,0000.39,0000.15,0000.16,0000.21,0000.14,0000.11,0000.07,0000.43,0000.38,16.3,23.1,,00.0,0648.6,30.9
2021-02-06T01:51:00Z,00000200,01000000,-000.11,0000.14,0000.17,-000.32,0000.04,0000.40,0000.41,0000.34,-000.05,16.4,23.1,,00.0,0648.6,30.9
2021-02-06T01:52:00Z,00000200,01000000,0000.18,-000.02,0000.01,0000.15,0000.25,-000.06,0000.39,0000.44,0000.01,16.5,23.1,,00.0,0648.6,30.9
2021-02-06T01:53:00Z,00000200,01000000,0000.57,-000.25,0000.13,0000.09,-000.21,-000.02,-000.18,-000.39,0000.23,16.5,23.2,,00.0,0648.6,30.9
2021-02-06T01:54:00Z,00000200,01000000,0000.09,-000.26,0000.18,0000.09,0000.01,0000.18,-000.30,0000.12,-000.10,16.5,23.2,,00.0,0648.6,30.9
2021-02-06T01:55:00Z,00000200,01000000,0000.83,-000.03,0000.23,0000.41,0000.09,0000.15,0000.32,0000.21,-000.21,16.4,23.1,,00.0,0648.6,30.9
2021-02-06T01:56:00Z,00000200,01000000,0000.40,0000.15,0000.10,0000.06,0000.07,0000.15,0000.04,0000.01,0000.25,16.3,23.1,,00.0,0648.6,30.9
2021-02-06T01:57:00Z,00000200,41000000,,,,,,,0000.17,-000.10,0000.03,16.3,23.1,,00.0,0648.6,30.9
2021-02-06T01:58:00Z,00000200,61000000,,,,,,,-000.43,-000.12,-000.11,15.9,23.2,,00.0,0647.7,30.9
2021-02-06T01:59:00Z,00000200,21000000,,,,,,,-000.29,-000.36,-000.19,15.8,23.3,,00.0,0647.7,30.9
